FW0019 Weather Reports


time (UTC)temp
F
wind
direction
speed
knots
gust
knots
rain 1hr
in
rain 24hr
in
rain mn
in
humidity
%
barometer
mb
20260510014525 66 139 4.3 10.4 0.00 0.00 0.00 61 876.9
20260510013025 67 105 7.8 13.0 0.00 0.00 0.00 59 876.9
20260510011534 68 175 7.0 13.0 0.00 0.00 0.00 57 876.9
20260510010022 69 125 7.8 11.3 0.00 0.00 0.00 55 877.0
20260510004523 70 159 7.0 13.0 0.00 0.00 0.00 55 876.9
20260510003046 71 114 7.8 14.8 0.00 0.00 0.00 53 877.0
20260510001523 72 123 7.8 15.6 0.00 0.00 0.00 52 876.9
20260510000021 73 121 7.8 13.9 0.00 0.00 0.00 50 876.9
20260509234527 73 132 7.8 14.8 0.00 0.00 0.00 50 876.9
20260509233022 73 109 8.7 13.0 0.00 0.00 0.00 48 877.0
20260509231528 73 148 9.6 15.6 0.00 0.00 0.00 47 877.0
20260509230028 74 133 8.7 14.8 0.00 0.00 0.00 48 877.1
20260509224518 74 153 7.0 13.9 0.00 0.00 0.00 46 877.3
20260509223015 75 142 8.7 16.5 0.00 0.00 0.00 45 877.3
20260509221514 75 169 8.7 15.6 0.00 0.00 0.00 40 877.4
20260509220013 76 140 7.8 14.8 0.00 0.00 0.00 39 877.7
20260509214513 76 135 9.6 14.8 0.00 0.00 0.00 35 877.8
20260509213013 76 154 7.8 14.8 0.00 0.00 0.00 37 877.8
20260509211512 76 141 9.6 13.9 0.00 0.00 0.00 37 877.9
20260509210015 76 140 7.8 13.0 0.00 0.00 0.00 37 878.1
20260509204511 77 125 8.7 14.8 0.00 0.00 0.00 35 878.2
20260509203014 76 138 8.7 13.9 0.00 0.00 0.00 36 878.2
20260509201511 76 178 8.7 13.9 0.00 0.00 0.00 33 878.3
20260509200009 76 169 8.7 13.9 0.00 0.00 0.00 34 878.4
20260509194512 76 136 7.8 13.0 0.00 0.00 0.00 36 878.4
20260509193009 76 123 7.0 13.0 0.00 0.00 0.00 32 878.4
20260509191507 77 144 6.1 13.0 0.00 0.00 0.00 35 878.5
20260509190008 76 175 7.0 12.2 0.00 0.00 0.00 34 878.5
20260509184502 75 177 5.2 10.4 0.00 0.00 0.00 35 878.6
20260509183139 74 140 7.0 11.3 0.00 0.00 0.00 34 878.7
20260509181615 74 125 6.1 10.4 0.00 0.00 0.00 33 878.7
20260509180058 73 104 6.1 8.7 0.00 0.00 0.00 37 878.7
20260509174555 72 136 6.1 10.4 0.00 0.00 0.00 25 878.7
20260509173100 72 119 6.1 8.7 0.00 0.00 0.00 28 878.6
20260509171548 70 105 5.2 8.7 0.00 0.00 0.00 34 878.5
20260509170046 70 105 5.2 7.8 0.00 0.00 0.00 37 878.4
20260509164544 69 110 4.3 8.7 0.00 0.00 0.00 40 878.4
20260509163041 68 127 3.5 8.7 0.00 0.00 0.00 42 878.3
20260509161539 67 137 6.1 10.4 0.00 0.00 0.00 47 878.3
20260509160039 67 140 6.1 9.6 0.00 0.00 0.00 43 878.2
20260509154536 67 109 4.3 7.8 0.00 0.00 0.00 44 878.0
20260509153033 65 138 3.5 6.1 0.00 0.00 0.00 46 878.0
20260509151529 64 130 3.5 7.0 0.00 0.00 0.00 48 878.0
20260509150026 63 107 5.2 7.8 0.00 0.00 0.00 46 878.0
20260509144534 62 121 2.6 4.3 0.00 0.00 0.00 50 877.9
20260509143020 60 122 2.6 6.1 0.00 0.00 0.00 50 877.9
20260509141517 59 125 3.5 5.2 0.00 0.00 0.00 49 877.8
20260509140015 58 128 2.6 4.3 0.00 0.00 0.00 46 877.7
20260509134514 57 134 1.7 2.6 0.00 0.00 0.00 51 877.6
20260509133013 55 107 1.7 5.2 0.00 0.00 0.00 48 877.6
20260509131511 54 100 3.5 7.0 0.00 0.00 0.00 50 877.6
20260509130011 53 119 2.6 4.3 0.00 0.00 0.00 48 877.4
20260509124507 54 130 3.5 6.1 0.00 0.00 0.00 44 877.5
20260509123005 54 121 3.5 5.2 0.00 0.00 0.00 39 877.3
20260509121502 56 125 3.5 6.1 0.00 0.00 0.00 28 877.3
20260509120002 57 115 4.3 7.0 0.00 0.00 0.00 18 877.3
20260509114502 58 151 4.3 7.8 0.00 0.00 0.00 17 877.3
20260509113100 57 119 4.3 7.8 0.00 0.00 0.00 18 877.4
20260509111558 57 128 3.5 7.0 0.00 0.00 0.00 21 877.4
20260509110057 56 123 3.5 7.0 0.00 0.00 0.00 23 877.5
20260509104556 56 134 3.5 5.2 0.00 0.00 0.00 25 877.6
20260509103056 55 128 2.6 4.3 0.00 0.00 0.00 32 877.7
20260509101557 56 136 3.5 6.1 0.00 0.00 0.00 38 877.7
20260509100055 57 123 4.3 7.8 0.00 0.00 0.00 37 877.7
20260509094552 57 115 4.3 8.7 0.00 0.00 0.00 26 877.7
20260509093057 55 139 2.6 5.2 0.00 0.00 0.00 39 877.8
20260509091548 55 121 3.5 5.2 0.00 0.00 0.00 42 877.9
20260509090047 55 153 3.5 6.1 0.00 0.00 0.00 44 878.0
20260509084553 54 144 2.6 7.0 0.00 0.00 0.00 47 878.1
20260509083041 56 157 3.5 6.1 0.00 0.00 0.00 44 878.2
20260509081541 58 110 4.3 9.6 0.00 0.00 0.00 40 878.2
20260509080049 57 111 5.2 7.8 0.00 0.00 0.00 38 878.3
20260509074536 58 107 3.5 7.8 0.00 0.00 0.00 36 878.5
20260509073033 59 133 5.2 10.4 0.00 0.00 0.00 31 878.6
20260509071524 60 143 6.1 7.8 0.00 0.00 0.00 18 878.6
20260509070022 59 139 3.5 7.0 0.00 0.00 0.00 20 878.7
20260509064521 60 147 3.5 7.0 0.00 0.00 0.00 21 878.8
20260509063020 62 134 6.1 10.4 0.00 0.00 0.00 20 878.8
20260509061519 61 107 5.2 9.6 0.00 0.00 0.00 20 878.9
20260509060019 62 162 7.0 11.3 0.00 0.00 0.00 20 878.9
20260509054518 62 120 7.0 11.3 0.00 0.00 0.00 19 878.9
20260509053032 62 107 7.8 11.3 0.00 0.00 0.00 20 879.0
20260509051525 62 124 7.0 12.2 0.00 0.00 0.00 22 879.0
20260509050018 62 128 7.0 11.3 0.00 0.00 0.00 22 879.0
20260509044516 62 125 7.0 11.3 0.00 0.00 0.00 23 879.1
20260509043015 62 116 7.0 12.2 0.00 0.00 0.00 24 879.0
20260509041514 62 119 7.0 10.4 0.00 0.00 0.00 26 878.9
20260509040013 62 118 7.0 10.4 0.00 0.00 0.00 26 878.7
20260509034513 62 121 7.0 10.4 0.00 0.00 0.00 28 878.6
20260509033012 62 135 7.8 12.2 0.00 0.00 0.00 29 878.6
20260509031510 62 146 7.0 13.0 0.00 0.00 0.00 34 878.6
20260509030010 62 144 6.1 11.3 0.00 0.00 0.00 36 878.5
20260509024509 63 123 6.1 9.6 0.00 0.00 0.00 36 878.4
20260509023008 65 120 7.0 12.2 0.00 0.00 0.00 33 878.3
20260509021507 66 80 7.0 14.8 0.00 0.00 0.00 34 878.2
20260509020009 67 131 9.6 20.9 0.00 0.00 0.00 34 878.2